STARLINK-32657, 62475

Orbit data source: Space-Track

STARLINK-32657, 62475 is a payload satellite owned by SpaceX/Seattle (US) in LEO that was launched on Tue, 31 Dec 2024 UTC via an FALCON 9 launch vehicle from the Air Force Eastern Test Range (AFETR). Payloads include a variety of satellites, spacecraft, and rockets equipped with specific instruments for various scientific and technological missions. These include communications satellites like Starlink; space stations such as the ISS; scientific satellites like the Hubble; Earth observation satellites from companies like Planet Labs, Umbra, and HawkEye 360; GPS; miniature CubeSats for education and research; and military/defense satellites.

Loading next visibility...
STARLINK-32657 details
Identifier
62475, 2024-254P
Orbit
LEO
Last TLE update6 hours ago
Origin
Flag of USSpaceX/Seattle (US)
ManufacturerSpaceX/Seattle
MissionOperational spacecraft
Bus & MotorSTARLINK V2M, Unknown motor
Mass730 kg wet, ~700 kg dry
Launch date (UTC)
2024-12-31 (4 weeks ago)
Launch vehicle
FALCON 9
Launch site
Air Force Eastern Test Range (AFETR)
Object type
Payload
Rocket body
Debris
Shape & HBRUnknown
Radar Cross SectionLarge (>1 m²)

Expand to show TLE details & history

TLE from 6 hours ago
0 STARLINK-32657
1 62475U 24254P   25025.58334491 -.01610601  00000-0 -28453-1 0  9992
2 62475  42.9991 166.1687 0001315 269.5545 332.2475 15.52538206  5076
Epoch: 2025-01-25T14:00Z
Definitive object data (Epoch: 2025-01-25T14:00:01Z)
Latitude-37.11672°
Longitude64.84061°
Altitude419.374 km
Speed7.66 km/s
True Right ascension02h 39m 53s
True Declination-36° 56' 35"
Sunlit
Object was in daylight at TLE epoch
Visualization TLE readout
Latitude-42.48086°
Longitude111.91817°
Altitude424.037 km
Speed7.658 km/s
Apparent Right ascension07h 43m 11s
Apparent Declination-44° 55' 17"
Sunlit
Object is in daylight
Visualization observer readout
Local Sidereal Time21:41:23
Azimuth112.737° SE
Elevation-67.75°
Doppler factor1
Orbital elements
Apogee altitude412.177 km
Perigee altitude410.392 km
Semi-major axis6,789.422 km
Eccentricity0.0001315
Inclination42.9991°
RAAN166.1687°
Arg. of periapsis269.5545°
True anomaly332.24048°
Mean anomaly332.2475°
Eccentric anomaly332.24399°
Mean motion3.87966 °/min
BSTAR-0.028453
Orbital period92.79 mins
Loading maneuver chart data...
Loading historical data...
Loading historical data...
Loading historical data...
Loading historical data...
Loading historical data...
Loading historical data...
Loading historical data...

STARLINK-32657 Visibility forecast

Observer location: undefined°, undefined

Span
Click to sort rows by Start time (UTC) header in descending order
Start Az.
Max El. time (UTC)
Max El. Az.
Max El.
End time (UTC)
End Az.
5 mins2025-01-26 12:21:18.537Z209.394° SW2025-01-26 12:23:18.537Z164.859° S27.389°2025-01-26 12:26:18.537Z88.538° E
5 mins2025-01-26 13:59:18.537Z269.289° W2025-01-26 14:01:18.537Z18.546° NNE41.725°2025-01-26 14:04:18.537Z69.98° E
4 mins2025-01-26 15:37:18.537Z302.291° NW2025-01-26 15:39:18.537Z35.876° NE34.938°2025-01-26 15:41:18.537Z76.778° E
5 mins2025-01-26 17:14:18.537Z283.535° WNW2025-01-26 17:16:18.537Z229.037° WSW43.438°2025-01-26 17:19:18.537Z117.579° SE
|